{"data":{"norad_id":60362,"epoch":"2026-05-25T04:14:26.238048Z","epoch_age_seconds":56401,"freshness":"FRESH","line1":"1 60362U 24138H   26145.17669257  .00001467  00000+0  61677-4 0  9994","line2":"2 60362  53.1613 314.6378 0001450  80.4626 279.6539 15.30190562102327","mean_motion":15.30190562,"eccentricity":0.000145,"inclination_deg":53.1613,"raan_deg":314.6378,"arg_perigee_deg":80.4626,"mean_anomaly_deg":279.6539,"bstar":6.1677e-5,"rev_number":10232,"period_min":94.10592613497,"perigee_km":474.24950959475,"apogee_km":476.23698986717,"semimajor_km":6853.380249731,"source":"CELESTRAK","updated_at":"2026-05-25T13:38:19.239055Z"}}